Weather History for Sterling Muni, Sterling, CO, CO

Change the Weather History Date:

Sunday, May 11, 2014

  Actual Average Record
Temperature  
Mean Temperature 44 °F -  
Max Temperature 50 °F 72 °F 68 °F (2013)
Min Temperature 37 °F 42 °F 37 °F (2014)
Degree Days  
Heating Degree Days 22    
Moisture  
Dew Point 41 °F    
Average Humidity 94    
Maximum Humidity 100    
Minimum Humidity 87    
Precipitation  
Precipitation 0.02 in - - ()
Sea Level Pressure  
Sea Level Pressure 29.86 in    
Wind  
Wind Speed 14 mph (NNE)    
Max Wind Speed 24 mph    
Max Gust Speed 37 mph    
Visibility 8 miles    
Events Rain , Snow    
Averages and records for this station are not official NWS values.
T = Trace of Precipitation, MM = Missing Value Source: NWS Daily Summary

Daily Weather History Graph

Daily Weather History Graph

Search for Another Location

Airport:

Trip Planner

Search our weather history database for the weather conditions in past years. The results will help you decide how hot, cold, wet, or windy it might be!

Date:

Astronomy

May. 11, 2014 Rise Set
Actual Time 5:40 AM MDT 7:59 PM MDT
Civil Twilight 5:09 AM MDT 8:30 PM MDT
Nautical Twilight 4:31 AM MDT 9:07 PM MDT
Astronomical Twilight 3:50 AM MDT 9:49 PM MDT
Moon 4:56 PM MDT (5/11) 3:47 AM MDT (5/11)
Length of Visible Light 15h 20m
Length of Day
14h 19m
Waxing Gibbous, 89% of the Moon is Illuminated
May 11
Waxing Gibbous
May 14
Full
May 21
Last Quarter
May 28
New
Jun 5
First Quarter

Hourly Weather History & Observations

Time (MDT) Temp. Windchill Dew Point Humidity Pressure Visibility Wind Dir Wind Speed Gust Speed Precip Events Conditions
12:10 AM 50.0 °F - 50.0 °F 100% 29.77 in 10.0 mi ENE 10.4 mph 18.4 mph N/A   Overcast
12:30 AM 50.0 °F - 50.0 °F 100% 29.76 in 10.0 mi ENE 10.4 mph - N/A   Overcast
12:50 AM 50.0 °F - 50.0 °F 100% 29.77 in 10.0 mi NE 8.1 mph - N/A   Overcast
1:10 AM 50.0 °F - 50.0 °F 100% 29.77 in 10.0 mi NE 9.2 mph - N/A   Overcast
1:30 AM 50.0 °F - 50.0 °F 100% 29.75 in 10.0 mi NE 10.4 mph - N/A Rain Light Rain
1:50 AM 50.0 °F - 50.0 °F 100% 29.76 in 10.0 mi NE 11.5 mph - N/A   Overcast
2:10 AM 50.0 °F - 50.0 °F 100% 29.75 in 10.0 mi NE 12.7 mph 16.1 mph N/A   Overcast
2:30 AM 50.0 °F - 48.2 °F 94% 29.73 in 10.0 mi NE 13.8 mph 17.3 mph N/A   Mostly Cloudy
2:50 AM 50.0 °F - 48.2 °F 94% 29.73 in 10.0 mi NE 11.5 mph 18.4 mph N/A   Mostly Cloudy
3:10 AM 50.0 °F - 48.2 °F 94% 29.73 in 10.0 mi ENE 13.8 mph 18.4 mph N/A   Overcast
3:30 AM 50.0 °F - 48.2 °F 94% 29.72 in 10.0 mi NE 11.5 mph 17.3 mph N/A   Overcast
3:50 AM 50.0 °F - 46.4 °F 87% 29.73 in 10.0 mi NE 9.2 mph - N/A   Overcast
4:10 AM 50.0 °F - 46.4 °F 87% 29.74 in 10.0 mi NE 8.1 mph - N/A   Overcast
4:30 AM 50.0 °F - 46.4 °F 87% 29.74 in 10.0 mi NE 8.1 mph - N/A   Overcast
4:50 AM 50.0 °F - 48.2 °F 94% 29.76 in 10.0 mi NNE 6.9 mph - N/A   Overcast
5:10 AM 50.0 °F - 48.2 °F 94% 29.76 in 10.0 mi NE 10.4 mph - N/A   Overcast
5:30 AM 50.0 °F - 46.4 °F 87% 29.76 in 10.0 mi NNE 15.0 mph 19.6 mph N/A   Overcast
5:50 AM 50.0 °F - 46.4 °F 87% 29.80 in 10.0 mi NNE 10.4 mph - N/A   Overcast
6:10 AM 50.0 °F - 46.4 °F 87% 29.79 in 10.0 mi NE 15.0 mph 23.0 mph N/A   Overcast
6:30 AM 50.0 °F - 46.4 °F 87% 29.80 in 10.0 mi NNE 17.3 mph 24.2 mph N/A   Overcast
6:50 AM 50.0 °F - 46.4 °F 87% 29.80 in 10.0 mi NNE 11.5 mph - N/A   Overcast
7:10 AM 50.0 °F - 46.4 °F 87% 29.80 in 10.0 mi NNE 15.0 mph 21.9 mph N/A   Overcast
7:30 AM 46.4 °F 39.0 °F 46.4 °F 100% 29.81 in 10.0 mi NE 19.6 mph 28.8 mph N/A   Light Drizzle
7:50 AM 46.4 °F 38.5 °F 44.6 °F 93% 29.81 in 10.0 mi NNE 21.9 mph 28.8 mph N/A   Light Drizzle
8:10 AM 44.6 °F 37.2 °F 42.8 °F 93% 29.81 in 7.0 mi NNE 17.3 mph 27.6 mph N/A Rain Rain
8:30 AM 42.8 °F 34.3 °F 41.0 °F 93% 29.81 in 3.0 mi NNE 19.6 mph 27.6 mph N/A Rain Light Rain
8:50 AM 41.0 °F 31.4 °F 41.0 °F 100% 29.81 in 4.0 mi NNE 21.9 mph 32.2 mph N/A Rain Light Rain
9:10 AM 41.0 °F 31.9 °F 39.2 °F 93% 29.81 in 3.0 mi NNE 19.6 mph 29.9 mph N/A Rain Light Rain
9:30 AM 41.0 °F 31.4 °F 39.2 °F 93% 29.82 in 7.0 mi NNE 21.9 mph 28.8 mph N/A   Light Drizzle
9:50 AM 41.0 °F 31.1 °F 39.2 °F 93% 29.82 in 5.0 mi NE 23.0 mph 29.9 mph N/A Rain Light Rain
10:10 AM 41.0 °F 32.5 °F 39.2 °F 93% 29.82 in 3.0 mi NNE 17.3 mph 28.8 mph N/A Rain Light Rain
10:30 AM 41.0 °F 32.5 °F 39.2 °F 93% 29.82 in 4.0 mi NNE 17.3 mph 26.5 mph N/A   Light Drizzle
10:50 AM 41.0 °F 32.2 °F 39.2 °F 93% 29.82 in 4.0 mi NNE 18.4 mph 27.6 mph N/A Rain Light Rain
11:10 AM 41.0 °F 32.5 °F 39.2 °F 93% 29.84 in 3.0 mi NNE 17.3 mph 23.0 mph N/A Rain Light Rain
11:30 AM 41.0 °F 32.5 °F 39.2 °F 93% 29.84 in 4.0 mi NNE 17.3 mph 28.8 mph N/A   Overcast
11:50 AM 41.0 °F 33.1 °F 39.2 °F 93% 29.86 in 4.0 mi NNE 15.0 mph 24.2 mph N/A Rain Rain
12:10 PM 41.0 °F 33.5 °F 39.2 °F 93% 29.86 in 4.0 mi North 13.8 mph 21.9 mph N/A Rain Light Rain
12:30 PM 39.2 °F 29.6 °F 37.4 °F 93% 29.86 in 3.0 mi NNE 19.6 mph 24.2 mph 0.01 in Rain Rain
12:50 PM 39.2 °F 29.8 °F 39.2 °F 100% 29.86 in 4.0 mi North 18.4 mph 21.9 mph 0.01 in Rain Light Rain
1:10 PM 39.2 °F 30.5 °F 37.4 °F 93% 29.86 in 4.0 mi NNE 16.1 mph 26.5 mph N/A Rain Light Rain
1:30 PM 39.2 °F 29.6 °F 37.4 °F 93% 29.88 in 5.0 mi North 19.6 mph 24.2 mph N/A   Overcast
1:50 PM 39.2 °F 29.8 °F 37.4 °F 93% 29.88 in 5.0 mi North 18.4 mph 26.5 mph N/A   Overcast
2:10 PM 39.2 °F 29.3 °F 37.4 °F 93% 29.88 in 7.0 mi NNE 20.7 mph 28.8 mph N/A   Overcast
2:30 PM 39.2 °F 29.3 °F 37.4 °F 93% 29.91 in 10.0 mi North 20.7 mph 25.3 mph N/A   Overcast
2:50 PM 39.2 °F 29.8 °F 37.4 °F 93% 29.89 in 10.0 mi NNE 18.4 mph 31.1 mph N/A Rain Light Rain
3:10 PM 39.2 °F 29.8 °F 37.4 °F 93% 29.90 in 10.0 mi NNE 18.4 mph 24.2 mph N/A Rain Light Rain
3:30 PM 37.4 °F 27.8 °F 37.4 °F 100% 29.89 in 10.0 mi NNE 17.3 mph 23.0 mph N/A Rain Light Rain
3:50 PM 37.4 °F 26.6 °F 37.4 °F 100% 29.89 in 7.0 mi North 21.9 mph 27.6 mph N/A Rain Light Rain
4:10 PM 37.4 °F 28.2 °F 35.6 °F 93% 29.91 in 2.5 mi North 16.1 mph 20.7 mph N/A Snow Light Snow
4:30 PM 37.4 °F 28.2 °F 37.4 °F 100% 29.93 in 7.0 mi North 16.1 mph 20.7 mph 0.01 in Rain Light Rain
4:50 PM 37.4 °F 29.3 °F 37.4 °F 100% 29.95 in 7.0 mi North 12.7 mph 20.7 mph 0.01 in   Overcast
5:10 PM 37.4 °F 29.3 °F 37.4 °F 100% 29.97 in 4.0 mi North 12.7 mph - N/A   Light Drizzle
5:30 PM 37.4 °F 28.9 °F 37.4 °F 100% 29.96 in 3.0 mi North 13.8 mph 19.6 mph N/A   Light Drizzle
5:50 PM 37.4 °F 28.2 °F 37.4 °F 100% 29.96 in 3.0 mi North 16.1 mph 23.0 mph N/A Rain Light Rain
6:10 PM 37.4 °F 28.2 °F 37.4 °F 100% 29.93 in 4.0 mi North 16.1 mph 24.2 mph N/A   Light Drizzle
6:30 PM 37.4 °F 27.5 °F 37.4 °F 100% 29.95 in 4.0 mi North 18.4 mph 23.0 mph N/A Rain Light Rain
6:50 PM 37.4 °F 27.8 °F 37.4 °F 100% 29.96 in 10.0 mi North 17.3 mph 24.2 mph N/A   Overcast
7:10 PM 37.4 °F 28.9 °F 37.4 °F 100% 29.95 in 10.0 mi North 13.8 mph 24.2 mph N/A   Overcast
7:30 PM 37.4 °F 27.5 °F 37.4 °F 100% 29.95 in 10.0 mi North 18.4 mph 25.3 mph N/A Rain Light Rain
7:50 PM 37.4 °F 27.8 °F 35.6 °F 93% 29.94 in 10.0 mi North 17.3 mph 26.5 mph N/A   Light Drizzle
8:10 PM 37.4 °F 27.2 °F 35.6 °F 93% 29.94 in 10.0 mi North 19.6 mph 27.6 mph N/A   Overcast
8:30 PM 37.4 °F 27.5 °F 35.6 °F 93% 29.96 in 10.0 mi North 18.4 mph 24.2 mph N/A   Overcast
8:50 PM 37.4 °F 27.5 °F 35.6 °F 93% 29.99 in 10.0 mi North 18.4 mph 27.6 mph N/A   Overcast
9:10 PM 37.4 °F 26.6 °F 35.6 °F 93% 30.00 in 10.0 mi North 21.9 mph 28.8 mph N/A   Overcast
9:30 PM 37.4 °F 27.8 °F 35.6 °F 93% 30.00 in 10.0 mi North 17.3 mph 28.8 mph N/A   Overcast
9:50 PM 39.2 °F 29.6 °F 35.6 °F 87% 30.00 in 10.0 mi North 19.6 mph 36.8 mph N/A   Overcast
10:10 PM 39.2 °F 29.0 °F 35.6 °F 87% 30.01 in 10.0 mi North 21.9 mph 28.8 mph N/A   Overcast
10:30 PM 39.2 °F 28.5 °F 35.6 °F 87% 30.02 in 10.0 mi North 24.2 mph 34.5 mph N/A   Light Drizzle
10:50 PM 37.4 °F 26.1 °F 37.4 °F 100% 30.03 in 10.0 mi North 24.2 mph 31.1 mph N/A Rain Rain
11:10 PM 39.2 °F 29.3 °F 37.4 °F 93% 30.02 in 10.0 mi NNE 20.7 mph 27.6 mph N/A Rain Light Rain
11:30 PM 39.2 °F 30.2 °F 37.4 °F 93% 30.02 in 10.0 mi North 17.3 mph 31.1 mph N/A Rain Light Rain
11:50 PM 39.2 °F 29.8 °F 37.4 °F 93% 30.02 in 10.0 mi North 18.4 mph 28.8 mph N/A Rain Light Rain